Temp
20 20 20 19 17 15 17 19 17 17 17 19 19 18 14 15 14 12 13 13 13 13 14 14 14 14 14 15 15 15 15 15 15 15 14 14 15 15 15 15 15 15 15 15 15 15 15 15 15
19 20 19 20 15 15 16 17 16 16 19 19 19 17 16 14 14 13 13 13 13 13 14 14 14 14 14 14 14 15 15 15 15 14 14 14 14 14 14 15 15 15 15 15 15 15 15 15 15
20 19 19 14 14 16 16 17 16 18 19 19 18 17 15 14 14 13 12 13 13 14 14 14 14 14 14 13 13 14 14 14 14 14 14 14 14 14 14 14 14 14 14 14 15 15 15 15 14
20 20 20 15 16 16 16 17 18 18 19 19 18 13 14 13 13 12 12 13 14 14 14 14 14 14 14 13 13 13 13 13 13 14 14 14 14 14 14 14 14 14 14 14 14 14 14 15 14
19 19 15 15 17 17 17 19 20 18 18 19 18 14 13 12 12 13 13 13 14 14 14 14 14 14 14 14 14 13 13 13 13 13 13 13 13 14 13 13 14 13 13 13 14 14 14 14 14
19 19 15 14 16 17 17 19 19 18 18 18 17 15 12 12 13 13 13 13 13 13 13 13 13 13 13 13 13 13 13 12 12 12 12 12 12 12 13 13 13 14 14 13 13 14 14 14 14
18 14 17 14 16 17 17 19 17 16 16 17 17 13 12 13 13 12 12 12 12 12 12 12 12 12 13 13 13 13 12 13 13 13 13 12 12 12 12 13 13 13 13 13 13 13 14 14 14
19 15 19 16 16 16 18 18 18 18 17 17 17 13 12 13 12 12 11 12 12 12 12 12 12 12 12 12 12 12 12 12 12 12 13 13 12 12 11 11 12 12 13 13 13 13 13 14 14
19 13 14 16 16 16 18 16 17 17 17 16 16 15 14 12 12 11 11 11 11 11 11 11 12 12 12 12 12 11 11 11 11 11 12 12 12 12 12 11 11 11 11 12 12 13 14 13 13
16 12 16 15 15 15 17 17 17 16 16 14 13 13 13 13 12 11 11 11 11 11 11 11 11 11 11 11 11 11 11 11 11 11 11 11 12 12 11 11 11 11 11 11 11 11 12 13 13
17 14 15 14 16 17 17 16 17 15 13 14 14 13 13 12 12 11 10 10 10 10 10 10 10 10 10 10 10 10 10 10 10 11 11 11 11 11 11 11 11 11 11 10 10 11 11 12 12
15 15 16 15 15 16 15 16 14 14 14 14 14 14 13 12 12 10 10 9 9 9 8 9 9 9 10 10 10 10 10 10 10 10 9 10 10 10 10 10 10 10 11 11 10 10 10 11 11
14 15 15 15 15 15 15 15 14 14 14 14 14 13 13 12 11 10 9 8 8 8 8 8 8 9 9 9 9 9 9 9 8 8 8 8 8 9 9 9 9 9 10 9 10 9 9 10 10
16 15 15 15 15 15 14 14 15 13 13 14 13 13 12 11 10 9 8 7 7 7 7 7 8 8 8 8 8 8 8 8 8 7 7 7 7 7 8 8 8 9 8 9 8 8 8 8 8
16 13 14 15 15 14 14 14 12 13 13 13 13 12 11 10 9 8 7 7 6 6 7 7 7 7 6 6 6 6 6 7 7 7 6 6 6 6 6 7 7 7 7 8 8 9 8 8 8
15 14 13 14 14 14 14 13 11 12 13 13 12 11 10 8 8 7 7 6 6 6 7 6 6 6 6 6 6 6 5 4 5 5 5 5 5 5 6 6 6 6 7 7 7 7 8 8 8
14 14 14 13 14 14 13 12 10 12 12 12 11 10 9 8 7 6 6 6 6 6 6 6 6 6 6 6 5 5 5 4 4 4 4 4 4 4 5 5 5 5 6 6 6 6 6 8 8
14 14 15 14 13 13 12 11 9 11 11 12 10 9 8 8 7 6 5 5 5 5 5 5 5 5 5 5 5 5 4 4 4 4 4 4 4 3 4 4 5 5 5 5 6 6 6 6 7
14 15 14 13 13 12 13 11 8 10 11 9 8 7 7 7 6 5 5 5 5 5 5 4 5 5 5 5 4 5 4 4 4 3 3 3 3 3 3 3 3 3 4 5 4 4 4 6 6
14 14 11 12 13 11 11 11 8 9 9 9 7 7 7 6 6 6 5 5 4 4 4 4 3 4 3 3 3 2 2 3 3 2 2 2 2 2 2 2 2 3 2 2 3 3 3 4 4
11 12 11 10 10 10 10 9 8 8 8 7 7 7 6 6 6 6 5 4 4 3 3 3 3 3 3 2 2 2 2 3 2 2 2 1 1 0 0 1 1 1 1 1 1 2 1 1 3
13 10 10 10 8 10 10 9 8 6 6 7 6 6 6 6 6 6 5 4 3 3 3 3 3 2 2 2 2 1 0 -1 -0 -1 -0 0 -0 -1 -1 -2 -1 -1 -0 -0 -0 0 0 0 0
12 10 10 10 9 9 10 8 8 6 6 5 5 6 6 6 6 6 5 4 4 3 3 3 2 2 2 1 1 0 -1 -2 -2 -1 -1 -1 -1 -1 -2 -2 -2 -2 -1 -1 -1 -1 -0 -1 -1
11 11 9 9 7 7 10 9 9 7 8 7 6 7 7 6 6 5 5 4 3 3 3 2 2 2 1 0 0 -1 -2 -2 -3 -3 -3 -3 -3 -3 -3 -3 -3 -3 -4 -3 -2 -2 -2 -1 -1
10 8 7 8 6 9 10 7 9 9 8 7 7 7 7 7 6 6 5 4 3 3 3 2 1 1 -0 -1 -1 -2 -3 -3 -4 -4 -4 -4 -4 -5 -4 -5 -5 -4 -4 -4 -4 -3 -3 -2 -2
10 8 6 10 7 7 8 8 10 7 7 8 8 8 8 7 6 5 4 4 3 3 2 1 0 -0 -1 -2 -2 -3 -3 -4 -4 -5 -5 -5 -6 -6 -6 -6 -6 -5 -5 -5 -4 -4 -4 -3 -3
10 9 9 8 7 4 6 8 8 7 6 7 8 7 7 6 6 5 4 3 2 2 1 0 -0 -1 -2 -3 -3 -4 -4 -5 -5 -5 -5 -6 -6 -7 -7 -7 -6 -6 -6 -5 -5 -5 -5 -4 -3
9 9 8 5 6 8 7 7 8 5 5 5 6 7 7 6 5 4 3 3 2 1 0 -1 -2 -2 -3 -3 -4 -4 -5 -5 -5 -5 -6 -7 -7 -7 -7 -7 -7 -7 -7 -6 -6 -6 -5 -5 -4
7 8 8 7 5 6 5 6 6 6 6 5 6 7 6 5 4 4 3 2 1 0 -1 -1 -2 -3 -3 -4 -5 -5 -5 -5 -6 -6 -7 -7 -8 -8 -8 -8 -8 -8 -7 -7 -7 -7 -6 -6 -5
9 9 8 5 8 3 2 5 8 6 7 7 6 6 6 5 4 3 2 1 0 -0 -1 -2 -3 -4 -4 -5 -6 -6 -6 -6 -6 -7 -7 -8 -8 -8 -8 -8 -8 -8 -8 -8 -8 -7 -7 -7 -6
Height
1525 1524 1523 1523 1534 1536 1545 1541 1536 1538 1540 1542 1541 1539 1549 1552 1555 1570 1567 1564 1562 1561 1559 1558 1557 1556 1555 1554 1553 1552 1551 1550 1549 1548 1547 1547 1546 1546 1546 1546 1545 1544 1544 1542 1542 1541 1541 1541 1541
1526 1525 1524 1525 1543 1555 1553 1540 1545 1541 1541 1542 1544 1545 1547 1558 1559 1563 1564 1564 1563 1561 1559 1558 1557 1555 1554 1553 1552 1551 1550 1549 1548 1547 1547 1546 1545 1545 1544 1543 1543 1543 1542 1541 1541 1540 1539 1540 1539
1526 1525 1526 1530 1547 1553 1552 1542 1542 1541 1542 1542 1545 1547 1552 1561 1561 1564 1564 1563 1562 1559 1558 1556 1555 1554 1552 1551 1550 1549 1548 1548 1546 1546 1545 1545 1544 1543 1542 1541 1541 1540 1540 1540 1539 1538 1538 1537 1538
1526 1527 1529 1542 1548 1547 1545 1543 1540 1542 1543 1544 1546 1552 1557 1561 1561 1563 1562 1562 1560 1558 1558 1556 1555 1552 1552 1550 1549 1548 1546 1546 1544 1543 1543 1542 1542 1541 1540 1539 1538 1538 1538 1537 1537 1536 1535 1534 1535
1528 1528 1538 1547 1546 1545 1542 1541 1541 1542 1544 1545 1546 1556 1559 1562 1562 1561 1562 1561 1559 1558 1556 1555 1553 1552 1550 1548 1548 1546 1545 1544 1542 1541 1541 1540 1539 1538 1537 1537 1536 1535 1534 1534 1533 1534 1533 1532 1533
1529 1530 1547 1556 1549 1544 1543 1544 1543 1544 1546 1547 1549 1553 1562 1562 1562 1561 1560 1559 1558 1557 1555 1554 1552 1550 1548 1547 1546 1545 1544 1542 1540 1538 1538 1536 1536 1536 1534 1533 1533 1532 1532 1531 1530 1530 1530 1529 1529
1530 1536 1542 1550 1549 1547 1545 1545 1546 1548 1548 1549 1550 1554 1562 1562 1561 1561 1560 1559 1558 1556 1555 1553 1552 1550 1548 1546 1545 1544 1542 1540 1539 1538 1536 1534 1533 1532 1531 1530 1529 1528 1528 1527 1526 1526 1526 1525 1526
1530 1532 1536 1543 1548 1551 1546 1546 1548 1548 1551 1551 1550 1555 1560 1560 1561 1561 1559 1558 1558 1556 1554 1553 1552 1550 1548 1546 1543 1543 1540 1538 1537 1536 1533 1532 1531 1529 1528 1526 1525 1524 1523 1522 1522 1521 1523 1522 1522
1531 1541 1551 1546 1545 1548 1546 1547 1548 1549 1549 1551 1552 1553 1555 1558 1560 1559 1558 1558 1557 1556 1555 1554 1552 1550 1548 1546 1543 1542 1540 1538 1536 1534 1532 1531 1528 1527 1526 1524 1521 1520 1519 1518 1516 1517 1517 1517 1516
1532 1548 1545 1545 1544 1546 1546 1547 1548 1550 1551 1554 1555 1556 1558 1559 1561 1560 1558 1559 1558 1557 1555 1554 1553 1550 1548 1546 1544 1542 1539 1538 1535 1533 1531 1529 1527 1525 1524 1521 1520 1517 1515 1513 1512 1511 1511 1511 1511
1535 1545 1543 1545 1544 1545 1547 1548 1549 1551 1554 1556 1557 1558 1559 1560 1561 1559 1559 1558 1557 1557 1556 1554 1552 1551 1549 1547 1543 1541 1539 1537 1535 1531 1529 1527 1525 1523 1521 1520 1517 1514 1512 1511 1508 1506 1505 1506 1505
1540 1542 1542 1545 1545 1546 1548 1549 1552 1552 1556 1556 1556 1557 1559 1560 1560 1559 1558 1558 1558 1557 1556 1555 1553 1551 1548 1546 1544 1542 1539 1537 1534 1532 1529 1526 1524 1520 1519 1516 1514 1511 1510 1507 1504 1502 1501 1498 1499
1540 1543 1544 1545 1546 1547 1548 1549 1551 1554 1554 1555 1555 1557 1558 1559 1559 1559 1559 1559 1558 1558 1557 1554 1553 1551 1549 1547 1545 1542 1539 1537 1534 1532 1528 1526 1523 1520 1518 1515 1511 1509 1507 1505 1502 1499 1497 1495 1493
1540 1542 1545 1546 1547 1547 1548 1550 1550 1554 1554 1555 1556 1557 1558 1558 1558 1558 1558 1558 1558 1558 1557 1555 1554 1552 1550 1548 1546 1543 1540 1537 1534 1531 1529 1526 1522 1519 1515 1512 1509 1506 1504 1502 1499 1498 1496 1494 1492
1542 1546 1546 1547 1547 1548 1548 1552 1554 1554 1555 1556 1556 1557 1557 1557 1558 1558 1558 1558 1558 1557 1557 1556 1554 1552 1550 1547 1545 1543 1541 1538 1533 1530 1528 1525 1522 1518 1514 1510 1507 1504 1501 1498 1496 1495 1494 1493 1490
1543 1546 1554 1548 1547 1548 1549 1555 1554 1553 1553 1555 1555 1555 1555 1556 1556 1557 1558 1558 1557 1556 1555 1554 1553 1551 1549 1547 1544 1540 1537 1535 1532 1529 1526 1523 1520 1517 1513 1509 1506 1502 1498 1495 1492 1490 1489 1488 1487
1546 1552 1549 1551 1547 1547 1548 1552 1552 1551 1551 1552 1553 1553 1554 1555 1556 1556 1556 1556 1556 1555 1555 1554 1552 1549 1547 1543 1540 1537 1534 1531 1528 1525 1522 1520 1516 1514 1510 1507 1503 1499 1495 1491 1489 1487 1485 1483 1482
1552 1550 1545 1548 1549 1548 1548 1549 1550 1549 1549 1549 1551 1552 1553 1554 1555 1555 1555 1555 1555 1555 1554 1552 1551 1548 1544 1541 1538 1536 1533 1530 1527 1524 1521 1518 1514 1510 1505 1502 1499 1496 1492 1488 1485 1482 1482 1480 1477
1547 1547 1550 1548 1548 1547 1544 1546 1548 1547 1547 1548 1550 1551 1552 1553 1554 1554 1555 1555 1554 1554 1552 1551 1548 1545 1541 1537 1534 1531 1528 1525 1523 1520 1517 1515 1511 1507 1502 1498 1494 1490 1487 1484 1482 1479 1476 1476 1474
1545 1547 1555 1549 1546 1549 1545 1545 1547 1546 1546 1548 1549 1550 1550 1552 1553 1554 1554 1553 1552 1551 1550 1548 1546 1542 1538 1535 1532 1528 1524 1521 1518 1516 1513 1510 1506 1502 1498 1494 1490 1486 1483 1480 1478 1476 1472 1471 1472
1553 1552 1556 1558 1551 1546 1546 1547 1546 1546 1545 1547 1548 1548 1550 1550 1551 1550 1550 1551 1549 1548 1548 1546 1544 1541 1537 1533 1529 1525 1522 1518 1513 1510 1506 1502 1499 1496 1493 1489 1486 1482 1478 1476 1474 1471 1470 1467 1467
1551 1553 1554 1554 1557 1556 1546 1561 1544 1543 1544 1544 1545 1547 1547 1548 1548 1548 1548 1548 1547 1547 1546 1545 1542 1539 1535 1531 1526 1522 1517 1512 1509 1504 1500 1496 1493 1490 1487 1484 1481 1477 1473 1471 1469 1467 1465 1465 1462
1551 1552 1553 1552 1554 1555 1549 1560 1539 1542 1544 1541 1542 1542 1543 1544 1546 1546 1546 1546 1546 1544 1543 1541 1539 1536 1533 1528 1523 1518 1513 1509 1504 1499 1494 1490 1487 1484 1481 1478 1475 1471 1467 1465 1464 1462 1460 1459 1457
1549 1549 1553 1554 1560 1569 1548 1553 1538 1541 1532 1533 1536 1538 1539 1541 1543 1544 1544 1544 1542 1541 1539 1537 1535 1533 1529 1525 1520 1515 1510 1504 1498 1493 1488 1484 1480 1476 1474 1472 1469 1466 1462 1459 1457 1456 1455 1453 1452
1550 1556 1572 1571 1575 1561 1547 1558 1532 1529 1529 1527 1530 1533 1536 1539 1541 1541 1541 1540 1539 1538 1536 1533 1531 1528 1524 1520 1516 1511 1506 1500 1495 1489 1483 1478 1474 1470 1467 1465 1462 1459 1456 1453 1452 1450 1449 1448 1447
1552 1556 1576 1568 1577 1565 1553 1550 1530 1531 1531 1531 1532 1533 1535 1536 1537 1538 1538 1537 1536 1534 1532 1530 1526 1523 1519 1514 1510 1506 1500 1496 1491 1485 1480 1474 1470 1466 1462 1459 1457 1454 1450 1446 1446 1445 1443 1441 1440
1552 1557 1555 1562 1567 1583 1555 1538 1533 1531 1531 1530 1531 1531 1533 1534 1535 1534 1534 1534 1532 1531 1528 1525 1522 1519 1514 1509 1504 1499 1495 1490 1485 1479 1475 1469 1464 1461 1457 1454 1450 1447 1444 1441 1439 1438 1436 1435 1434
1551 1553 1563 1572 1574 1563 1552 1541 1529 1531 1530 1529 1529 1529 1530 1531 1532 1532 1531 1530 1529 1527 1524 1521 1517 1512 1508 1503 1498 1493 1489 1483 1478 1473 1468 1464 1459 1454 1450 1447 1444 1440 1437 1435 1434 1432 1430 1429 1428
1555 1555 1555 1559 1566 1570 1571 1541 1520 1521 1523 1524 1525 1525 1527 1528 1529 1529 1528 1527 1525 1523 1520 1516 1512 1508 1503 1498 1493 1488 1482 1477 1472 1467 1462 1457 1453 1448 1444 1441 1438 1434 1432 1430 1427 1425 1424 1422 1421
1546 1547 1550 1566 1555 1569 1576 1540 1516 1517 1519 1522 1524 1524 1526 1527 1528 1527 1526 1524 1522 1520 1517 1512 1508 1503 1499 1493 1489 1483 1477 1471 1466 1461 1456 1451 1446 1442 1438 1435 1431 1428 1426 1424 1421 1417 1416 1415 1414
Wind_Speed
3 3 4 5 4 5 2 3 3 6 4 6 8 15 13 15 5 6 8 7 9 11 8 9 10 11 11 11 10 10 10 9 8 8 7 7 7 7 7 6 5 4 4 5 5 5 8 8 7
4 5 4 2 5 3 3 3 6 4 5 4 12 13 11 4 11 10 2 7 10 10 10 9 11 11 11 12 11 11 10 10 10 9 9 8 9 9 9 9 8 7 5 5 7 8 8 8 8
5 4 3 4 3 1 3 2 6 6 8 9 5 12 6 3 11 7 6 4 6 9 10 9 9 10 10 10 10 10 10 11 10 10 10 11 11 11 11 11 11 9 9 8 7 8 10 9 10
4 3 2 5 7 7 5 3 9 6 7 8 9 10 10 3 6 7 3 5 8 10 12 11 9 9 10 10 10 10 10 9 10 11 10 11 11 12 13 13 12 12 11 10 10 10 10 11 12
4 1 4 4 4 3 4 7 7 3 5 9 9 4 9 8 12 6 3 4 8 10 10 11 11 11 11 11 10 9 9 11 12 11 11 11 12 13 12 14 14 14 14 14 13 11 12 13 14
3 1 4 3 3 3 4 10 5 6 11 6 8 8 6 9 2 4 3 6 8 10 11 11 12 11 11 11 12 11 10 9 10 12 14 14 16 14 13 13 13 15 16 16 15 14 13 14 15
3 3 3 5 6 3 2 5 7 10 7 7 7 5 10 7 3 4 5 6 9 11 10 12 12 13 14 13 12 12 11 12 12 13 13 15 17 20 21 21 20 17 16 17 17 17 16 15 15
3 4 2 3 3 2 2 3 5 8 4 7 4 4 6 9 4 5 5 8 9 10 11 12 12 12 12 12 12 13 12 13 14 14 14 14 15 16 17 20 22 23 21 16 19 18 18 16 17
3 4 2 3 3 4 4 3 4 4 7 7 5 5 9 9 7 6 4 6 10 10 11 11 11 12 11 11 12 11 12 12 13 13 13 14 14 14 14 15 15 18 21 21 18 20 20 20 18
5 4 2 2 3 4 7 7 3 4 8 10 15 13 10 9 8 7 3 7 8 10 11 11 11 11 11 12 11 12 11 11 12 12 13 15 14 15 14 12 13 14 14 19 25 24 22 21 22
4 3 5 5 8 8 6 6 3 6 5 7 6 11 8 12 8 5 4 5 10 11 9 9 10 11 11 11 11 11 11 12 12 12 11 11 12 12 12 12 12 13 14 16 16 17 24 25 23
6 11 7 3 5 4 2 2 7 12 3 4 4 4 11 12 10 8 5 4 7 8 10 10 10 11 11 12 12 12 12 13 14 15 15 15 15 14 13 13 13 13 14 15 16 16 20 24 24
6 4 7 8 6 6 4 5 6 7 6 2 5 11 10 12 9 4 1 2 6 8 9 10 11 13 14 15 15 15 15 14 14 14 15 16 17 16 16 15 14 15 15 15 15 14 15 13 20
6 10 9 5 5 4 4 2 4 4 8 7 11 11 13 11 9 8 4 2 7 8 9 13 15 17 18 19 19 19 18 17 15 15 16 17 16 17 17 17 16 15 16 15 15 13 13 13 15
13 5 3 2 2 2 3 2 3 3 4 7 10 12 12 11 10 6 2 3 7 11 11 13 14 15 17 19 21 22 22 22 20 17 16 16 18 19 19 19 19 19 16 15 15 16 16 16 16
1 4 2 2 5 2 4 2 3 2 2 2 14 14 13 9 6 2 3 5 8 10 11 11 12 15 19 21 22 23 24 24 22 20 19 21 22 23 22 23 22 22 20 19 17 18 19 18 18
1 1 3 2 0 1 3 3 4 2 5 6 18 19 15 10 5 1 4 6 6 8 9 11 14 18 22 23 22 21 21 22 23 24 26 27 27 27 27 26 23 23 23 21 22 21 19 21 19
1 1 3 3 2 1 4 5 5 4 7 5 17 18 15 10 5 2 3 6 9 9 10 12 15 20 22 21 20 20 21 20 19 21 23 24 25 25 24 24 24 24 23 22 22 23 21 19 19
2 1 2 1 2 2 3 2 6 8 8 9 19 19 15 10 6 6 8 9 10 9 10 11 18 23 25 24 24 26 28 29 28 28 27 26 28 27 27 26 26 24 25 23 23 25 24 21 17
1 1 3 3 1 1 5 4 4 6 6 6 16 13 11 8 6 8 11 10 8 9 11 15 21 23 24 25 27 29 30 30 29 29 29 29 29 29 28 26 26 24 25 25 23 22 25 23 15
3 3 0 5 5 4 2 5 5 3 6 7 9 8 7 7 8 11 11 8 7 9 15 18 23 22 26 27 28 29 31 32 34 34 35 35 33 32 29 27 25 25 24 25 25 22 20 23 21
1 2 2 3 3 1 3 4 5 6 6 9 11 10 10 11 12 12 10 7 7 13 15 19 22 23 25 26 28 31 33 35 34 35 35 34 32 30 28 27 27 25 23 24 26 23 21 21 24
2 1 1 1 1 3 1 2 5 6 6 9 16 15 14 15 15 11 7 7 10 12 18 23 23 25 25 28 30 33 34 33 36 35 35 34 32 31 30 29 28 27 24 24 27 27 22 20 22
2 1 2 3 2 2 3 4 4 5 6 5 14 19 17 17 14 11 10 10 12 15 21 23 25 26 28 30 32 33 34 36 36 35 36 36 36 35 32 30 27 26 25 24 25 26 25 24 24
3 4 3 5 3 5 3 2 8 3 3 6 15 20 19 17 15 13 11 13 16 21 24 25 27 29 31 33 33 33 34 34 34 35 36 36 36 35 33 30 28 27 26 26 27 27 26 24 23
1 4 4 4 2 4 5 5 5 2 5 6 9 14 16 16 14 11 12 15 18 23 24 27 28 31 34 34 33 33 34 34 34 35 34 34 34 32 30 28 28 28 27 27 26 25 24 22 21
1 2 3 2 2 3 4 5 1 3 3 5 8 9 15 13 11 12 11 15 18 21 24 27 30 33 34 33 34 35 34 35 35 34 34 32 31 30 29 29 30 29 26 25 25 25 24 22 21
1 2 2 2 1 4 6 5 6 7 8 7 9 13 12 11 12 11 11 15 18 22 24 26 29 33 34 33 34 34 35 34 33 33 33 31 30 29 31 31 29 29 27 26 24 24 23 22 21
1 1 1 2 4 4 3 6 5 8 9 10 15 18 12 14 10 10 14 16 16 20 24 29 32 32 33 33 33 35 34 34 33 32 32 31 31 30 30 28 28 28 27 26 26 25 24 22 21
1 4 5 4 4 3 3 7 0 6 10 8 8 10 9 7 8 10 12 14 18 22 28 29 29 31 32 33 34 34 34 33 32 33 32 31 32 29 27 29 29 28 27 27 27 26 26 25 24
Wind_Direction
127 103 41 9 49 58 36 16 50 44 52 70 42 88 97 55 50 124 76 7 327 334 360 352 358 354 350 348 350 341 336 331 326 316 309 307 299 293 290 292 295 293 278 256 270 274 284 286 272
69 51 36 12 76 67 308 51 83 63 100 113 83 103 50 76 79 69 107 345 333 357 6 350 352 346 341 345 341 340 331 328 324 317 306 295 291 291 290 287 280 278 276 271 259 260 267 279 271
80 31 5 91 85 128 121 76 107 89 64 43 97 74 74 47 75 88 53 302 15 36 27 16 352 343 338 328 328 334 330 324 316 311 305 303 297 288 283 284 283 279 275 275 270 264 258 266 268
27 26 38 81 111 357 98 129 119 108 84 65 95 76 86 24 101 129 223 9 19 23 21 17 10 2 2 346 333 325 316 317 309 307 303 296 291 289 287 282 283 283 278 273 267 267 268 262 261
22 338 52 84 54 114 65 52 39 84 97 48 49 100 99 93 138 159 91 30 19 17 9 1 0 3 5 9 4 352 330 310 301 298 296 292 289 285 287 286 279 274 272 273 272 269 268 269 262
353 25 47 90 108 121 52 29 20 75 84 58 82 100 95 145 156 106 68 33 25 24 19 18 13 6 9 5 3 0 359 346 318 303 291 286 282 280 278 276 280 278 274 268 267 267 270 270 262
80 78 138 141 145 80 119 45 41 71 75 40 41 85 134 181 127 97 48 37 30 27 24 27 23 15 12 12 8 360 349 341 332 332 325 314 293 287 280 276 275 274 269 269 266 266 265 269 266
19 100 84 27 161 90 77 84 51 68 61 83 85 126 169 180 119 67 43 10 20 21 25 27 25 24 20 22 13 10 357 347 341 334 326 320 317 315 301 285 276 271 270 269 269 264 265 265 263
358 60 44 16 85 158 81 128 74 105 130 75 97 132 146 139 97 126 106 358 5 24 30 27 24 21 18 16 15 11 7 358 350 352 344 338 328 321 313 314 302 287 272 265 256 259 255 255 259
67 82 78 17 44 113 90 97 99 69 91 82 92 115 129 124 131 152 9 353 5 20 24 20 16 13 11 7 6 3 2 354 350 354 352 348 345 340 332 317 305 304 302 278 261 255 258 254 250
44 118 142 29 63 86 90 71 54 102 38 54 114 152 130 126 126 120 75 9 360 2 6 10 9 5 3 358 359 348 347 340 337 336 339 339 335 337 336 331 322 310 302 301 295 275 258 251 247
97 57 117 125 58 78 75 48 75 72 74 43 82 155 136 145 133 116 88 7 345 351 360 3 360 357 358 350 344 345 341 340 334 333 334 331 329 330 329 327 328 321 314 311 304 303 274 261 257
89 121 86 113 107 80 98 100 117 72 69 55 95 133 141 146 140 121 88 341 326 334 347 346 353 351 350 347 344 341 339 337 339 332 333 333 334 332 330 327 323 315 320 321 312 309 309 300 268
119 112 130 133 102 88 92 139 122 64 54 92 105 107 126 127 133 136 123 30 327 336 342 346 353 357 354 352 349 346 341 337 334 336 337 337 334 334 334 330 326 317 318 317 311 298 300 297 284
129 88 82 60 34 115 83 89 83 79 74 116 140 113 123 126 145 138 127 327 320 325 345 350 358 5 5 3 356 351 346 339 333 334 338 339 337 336 335 334 331 327 324 316 305 295 282 281 280
93 85 88 307 9 183 87 257 110 90 56 105 142 142 138 128 124 86 328 315 307 322 337 353 4 359 348 340 333 328 325 322 322 324 328 333 337 337 335 334 331 323 322 323 313 307 308 296 281
333 249 149 273 12 278 140 195 172 146 136 131 154 152 154 144 132 39 305 308 316 324 337 346 344 344 342 339 339 340 338 336 330 319 314 315 314 311 317 322 324 321 321 316 313 312 310 304 290
259 30 336 132 257 30 277 218 173 150 151 155 165 150 156 162 161 181 253 284 301 314 328 333 343 344 345 343 341 336 335 330 328 328 324 323 324 325 321 318 317 317 314 315 314 309 309 308 299
253 311 333 238 231 265 227 184 190 172 142 128 146 148 156 168 180 211 251 285 288 305 313 330 341 344 342 340 337 334 332 329 326 325 323 322 321 320 319 318 315 314 313 312 312 313 312 308 310
303 302 348 289 198 19 285 281 173 165 139 144 161 160 167 182 200 239 266 285 297 309 321 332 339 340 343 338 336 333 331 329 324 321 318 319 319 319 318 317 313 310 310 308 306 306 309 307 315
43 123 85 235 318 274 301 281 184 190 164 131 157 177 188 192 211 241 261 307 312 313 313 321 335 339 335 332 330 328 323 319 320 319 317 318 318 317 315 314 311 308 304 303 303 304 304 305 300
284 148 265 293 45 270 106 280 244 193 191 196 189 193 199 199 220 230 264 285 288 292 302 313 323 331 330 328 326 325 321 319 319 317 315 314 315 316 314 310 308 308 300 295 298 299 296 296 298
235 267 253 300 330 22 263 91 273 127 222 214 204 205 207 207 223 235 239 255 281 281 295 309 319 325 324 323 324 322 320 319 317 317 316 315 315 314 312 309 307 305 301 294 292 292 286 279 284
311 29 73 20 61 8 253 141 255 194 223 174 198 208 204 205 206 216 241 257 255 277 295 308 318 321 321 323 323 321 319 319 319 318 317 317 315 314 313 312 307 303 303 299 294 291 284 279 278
27 53 345 355 2 235 344 9 254 180 23 160 179 198 197 204 219 228 243 244 263 288 303 312 318 320 324 323 321 320 319 319 318 317 316 316 314 314 315 313 309 303 299 298 298 293 288 283 275
351 132 148 244 241 271 332 248 273 100 105 123 158 199 196 203 204 225 242 264 286 301 308 315 319 323 325 323 321 321 320 320 319 318 316 314 312 313 315 315 309 305 301 299 297 294 291 286 276
286 144 157 114 351 50 246 287 246 158 156 164 167 155 184 199 226 237 254 285 299 303 310 316 320 321 321 322 321 321 321 321 321 319 317 315 313 312 310 306 306 306 304 302 299 295 293 287 280
210 166 70 34 298 270 279 265 232 218 212 206 206 213 218 221 209 232 269 293 297 304 311 316 316 318 320 321 320 319 320 321 322 321 320 318 315 310 307 306 305 305 303 303 301 298 294 290 281
119 185 187 141 161 203 288 257 215 203 196 204 225 231 217 197 224 264 293 301 304 308 312 315 316 318 320 320 319 319 322 324 323 323 324 322 317 313 310 309 307 307 306 302 297 295 295 293 287
138 184 164 138 238 229 166 270 153 172 184 181 167 178 204 249 280 300 298 294 295 305 312 315 318 321 322 322 321 323 325 326 326 327 327 325 322 317 309 307 303 300 297 298 297 294 288 287 285